User: anonymous   Login
Location: Caltech
(34.1382°N, 118.1253°W)
Time: 01:10:09
(UTC-07:00)
Language:

Cosmos 1939 Rocket - Orbit

View from above orbital plane
View from above orbital plane
View from above satellite
View from above satellite

Ground track
Ground track

The orbit data is extracted from the following two-line orbital elements,

1 19046U 88032B   17081.93613696 +.00000455 +00000-0 +38692-4 0  9997
2 19046 097.5439 131.3007 0036571 260.1278 099.5817 15.02178608559402
Epoch (UTC): 22 March 2017 22:28:02
Eccentricity: 0.0036571
inclination: 97.5439°
perigee height: 535 km
apogee height: 585 km
right ascension of ascending node: 131.3007°
argument of perigee: 260.1278°
revolutions per day: 15.02178608
mean anomaly at epoch: 99.5817°
orbit number at epoch: 55940

The dashed part of the orbit path shows where the satellite is in the earth's shadow,  

DLR